When you browse on this site, cookies collect data to enhance your experience and personalize the content and advertising you see.
Visit our Privacy Policy to learn more. By continuing to use the site, you agree to this use of cookies and data.
  • In Hungary
  • List of Countries
  • For 7 days
  • Water Temperature
  • Weather Map
  • News
  • Weather Widgets
  • user-avatar
    Login

    Hourly Weather Mari-Bilyamor

    Today, 16 October, Wednesday

    Time Temperature Precipitation Wind Pressure Humidity
    00:00 +1°C° 0.1 mm 5 mps 754 mmHg 93%
    01:00 +1°C° 0.1 mm 5 mps 754 mmHg 91%
    02:00 +1°C° 0.1 mm 5 mps 755 mmHg 89%
    03:00 +1°C° 0 mm 5 mps 756 mmHg 88%
    04:00 +1°C° 0 mm 5 mps 756 mmHg 88%
    05:00 +1°C° 0 mm 5 mps 757 mmHg 88%
    06:00 0°C° 0 mm 5 mps 757 mmHg 88%
    07:00 +1°C° 0 mm 5 mps 758 mmHg 85%
    08:00 +1°C° 0 mm 5 mps 758 mmHg 83%
    09:00 +1°C° 0 mm 5 mps 759 mmHg 81%
    10:00 +2°C° 0 mm 5 mps 759 mmHg 78%
    11:00 +2°C° 0 mm 5 mps 759 mmHg 75%
    12:00 +3°C° 0 mm 5 mps 759 mmHg 71%
    13:00 +2°C° 0 mm 5 mps 760 mmHg 72%
    14:00 +3°C° 0 mm 4 mps 760 mmHg 73%
    15:00 +3°C° 0 mm 4 mps 761 mmHg 74%
    16:00 +2°C° 0 mm 3 mps 761 mmHg 78%
    17:00 +2°C° 0 mm 2 mps 761 mmHg 81%
    18:00 +3°C° 0 mm 1 mps 761 mmHg 84%
    19:00 +2°C° 0 mm 1 mps 761 mmHg 85%
    20:00 +2°C° 0 mm 1 mps 761 mmHg 86%
    21:00 +1°C° 0 mm 0 mps 762 mmHg 86%
    22:00 +2°C° 0 mm 1 mps 761 mmHg 87%
    23:00 +2°C° 0 mm 1 mps 761 mmHg 87%

    Tomorrow, 17 October, Thursday

    Time Temperature Precipitation Wind Pressure Humidity
    00:00 +1°C° 0 mm 2 mps 761 mmHg 88%
    01:00 +1°C° 0 mm 2 mps 761 mmHg 89%
    02:00 +1°C° 0 mm 2 mps 761 mmHg 89%
    03:00 +2°C° 0 mm 2 mps 761 mmHg 90%
    04:00 0°C° 0.3 mm 3 mps 761 mmHg 93%
    05:00 0°C° 0.3 mm 3 mps 760 mmHg 95%
    06:00 -1°C° 0.3 mm 4 mps 759 mmHg 97%
    07:00 -1°C° 0.3 mm 4 mps 759 mmHg 97%
    08:00 -1°C° 0.3 mm 5 mps 758 mmHg 96%
    09:00 0°C° 0.3 mm 5 mps 758 mmHg 96%
    10:00 0°C° 0 mm 5 mps 757 mmHg 91%
    11:00 +1°C° 0 mm 5 mps 756 mmHg 87%
    12:00 +2°C° 0 mm 5 mps 756 mmHg 82%
    13:00 +3°C° 0 mm 5 mps 755 mmHg 82%
    14:00 +4°C° 0 mm 4 mps 755 mmHg 81%
    15:00 +5°C° 0 mm 3 mps 754 mmHg 81%
    16:00 +5°C° 0 mm 3 mps 754 mmHg 83%
    17:00 +5°C° 0 mm 3 mps 753 mmHg 85%
    18:00 +5°C° 0 mm 3 mps 753 mmHg 87%
    19:00 +5°C° 0 mm 3 mps 753 mmHg 89%
    20:00 +7°C° 0 mm 3 mps 753 mmHg 91%
    21:00 +7°C° 0 mm 3 mps 752 mmHg 93%
    22:00 +7°C° 0.1 mm 3 mps 752 mmHg 94%
    23:00 +7°C° 0.1 mm 2 mps 752 mmHg 95%

    Day after tomorrow, 18 October, Friday

    Time Temperature Precipitation Wind Pressure Humidity
    00:00 +7°C° 0.1 mm 2 mps 752 mmHg 96%
    01:00 +7°C° 0.1 mm 2 mps 751 mmHg 97%
    02:00 +8°C° 0.1 mm 1 mps 751 mmHg 97%
    03:00 +8°C° 0.1 mm 1 mps 751 mmHg 98%
    04:00 +8°C° 0.4 mm 1 mps 751 mmHg 98%
    05:00 +8°C° 0.4 mm 1 mps 751 mmHg 98%
    06:00 +7°C° 0.4 mm 2 mps 750 mmHg 98%
    07:00 +6°C° 0.5 mm 2 mps 750 mmHg 98%
    08:00 +5°C° 0.5 mm 3 mps 750 mmHg 98%
    09:00 +5°C° 0.5 mm 3 mps 750 mmHg 97%
    10:00 +5°C° 0.7 mm 4 mps 750 mmHg 96%
    11:00 +4°C° 0.7 mm 4 mps 750 mmHg 95%
    12:00 +3°C° 0.7 mm 5 mps 751 mmHg 94%
    13:00 +2°C° 0.4 mm 5 mps 751 mmHg 93%
    14:00 +2°C° 0.4 mm 6 mps 751 mmHg 91%
    15:00 +1°C° 0.4 mm 6 mps 752 mmHg 90%
    16:00 +1°C° 0 mm 6 mps 752 mmHg 88%
    17:00 +1°C° 0 mm 5 mps 753 mmHg 87%
    18:00 +1°C° 0 mm 5 mps 753 mmHg 85%
    19:00 +1°C° 0 mm 5 mps 754 mmHg 85%
    20:00 -1°C° 0 mm 6 mps 755 mmHg 84%
    21:00 -1°C° 0 mm 6 mps 755 mmHg 83%
    22:00 0°C° 0 mm 5 mps 756 mmHg 82%
    23:00 0°C° 0 mm 5 mps 756 mmHg 80%

    19 October, Saturday

    Time Temperature Precipitation Wind Pressure Humidity
    00:00 0°C° 0 mm 4 mps 757 mmHg 79%
    01:00 -1°C° 0 mm 4 mps 757 mmHg 82%
    02:00 -2°C° 0 mm 4 mps 757 mmHg 85%
    03:00 -1°C° 0 mm 3 mps 758 mmHg 88%
    04:00 -2°C° 0 mm 3 mps 758 mmHg 90%
    05:00 -2°C° 0 mm 3 mps 758 mmHg 91%
    06:00 -2°C° 0 mm 3 mps 759 mmHg 92%
    07:00 -2°C° 0 mm 3 mps 759 mmHg 90%
    08:00 -2°C° 0 mm 4 mps 759 mmHg 87%
    09:00 -2°C° 0 mm 4 mps 760 mmHg 84%
    10:00 0°C° 0 mm 3 mps 760 mmHg 83%
    11:00 0°C° 0 mm 3 mps 760 mmHg 82%
    12:00 0°C° 0 mm 3 mps 760 mmHg 80%
    13:00 +1°C° 0 mm 3 mps 760 mmHg 79%
    14:00 +2°C° 0 mm 2 mps 760 mmHg 78%
    15:00 +2°C° 0 mm 2 mps 760 mmHg 77%
    16:00 +2°C° 0 mm 2 mps 761 mmHg 80%
    17:00 +1°C° 0 mm 2 mps 761 mmHg 82%
    18:00 +1°C° 0 mm 2 mps 761 mmHg 84%
    19:00 +1°C° 0 mm 2 mps 761 mmHg 86%
    20:00 -1°C° 0 mm 2 mps 761 mmHg 88%
    21:00 -1°C° 0 mm 2 mps 762 mmHg 90%
    22:00 +1°C° 0 mm 1 mps 762 mmHg 91%
    23:00 0°C° 0 mm 1 mps 761 mmHg 92%

    20 October, Sunday

    Time Temperature Precipitation Wind Pressure Humidity
    00:00 0°C° 0 mm 1 mps 761 mmHg 93%
    01:00 0°C° 0 mm 1 mps 761 mmHg 92%
    02:00 0°C° 0 mm 1 mps 761 mmHg 92%
    03:00 -1°C° 0 mm 2 mps 761 mmHg 92%
    04:00 -2°C° 0 mm 2 mps 761 mmHg 92%
    05:00 -2°C° 0 mm 2 mps 761 mmHg 92%
    06:00 -2°C° 0 mm 2 mps 761 mmHg 92%
    07:00 -1°C° 0 mm 3 mps 761 mmHg 88%
    08:00 0°C° 0 mm 3 mps 760 mmHg 84%
    09:00 +1°C° 0 mm 3 mps 760 mmHg 80%
    10:00 +1°C° 0 mm 4 mps 760 mmHg 80%
    11:00 +3°C° 0 mm 4 mps 760 mmHg 79%
    12:00 +3°C° 0 mm 5 mps 759 mmHg 78%
    13:00 +3°C° 0 mm 5 mps 759 mmHg 82%
    14:00 +3°C° 0 mm 5 mps 759 mmHg 85%
    15:00 +3°C° 0 mm 5 mps 758 mmHg 88%
    16:00 +5°C° 0.1 mm 5 mps 758 mmHg 90%
    17:00 +5°C° 0.1 mm 5 mps 758 mmHg 91%
    18:00 +4°C° 0.1 mm 6 mps 758 mmHg 93%
    19:00 +6°C° 0.7 mm 5 mps 758 mmHg 94%
    20:00 +6°C° 0.7 mm 5 mps 757 mmHg 95%
    21:00 +7°C° 0.7 mm 5 mps 757 mmHg 96%
    22:00 +6°C° 0.1 mm 4 mps 757 mmHg 97%
    23:00 +7°C° 0.1 mm 3 mps 758 mmHg 97%

    21 October, Monday

    Time Temperature Precipitation Wind Pressure Humidity
    00:00 +7°C° 0.1 mm 2 mps 758 mmHg 98%
    01:00 +6°C° 0.1 mm 2 mps 758 mmHg 97%
    02:00 +7°C° 0.1 mm 1 mps 758 mmHg 97%
    03:00 +6°C° 0.1 mm 1 mps 758 mmHg 96%
    04:00 +6°C° 0 mm 1 mps 758 mmHg 97%
    05:00 +5°C° 0 mm 1 mps 758 mmHg 97%
    06:00 +5°C° 0 mm 1 mps 759 mmHg 97%
    07:00 +5°C° 0 mm 1 mps 759 mmHg 96%
    08:00 +6°C° 0 mm 1 mps 759 mmHg 94%
    09:00 +7°C° 0 mm 1 mps 759 mmHg 93%
    10:00 +8°C° 0 mm 1 mps 759 mmHg 89%
    11:00 +8°C° 0 mm 2 mps 759 mmHg 86%
    12:00 +9°C° 0 mm 2 mps 759 mmHg 82%
    13:00 +9°C° 0 mm 2 mps 759 mmHg 84%
    14:00 +9°C° 0 mm 2 mps 758 mmHg 85%
    15:00 +9°C° 0 mm 3 mps 758 mmHg 87%
    16:00 +9°C° 0.2 mm 3 mps 757 mmHg 90%
    17:00 +8°C° 0.2 mm 4 mps 756 mmHg 93%
    18:00 +8°C° 0.2 mm 5 mps 756 mmHg 96%
    19:00 +8°C° 0.6 mm 5 mps 755 mmHg 95%
    20:00 +9°C° 0.6 mm 6 mps 754 mmHg 95%
    21:00 +9°C° 0.6 mm 6 mps 753 mmHg 94%
    22:00 +9°C° 0.3 mm 6 mps 752 mmHg 93%
    23:00 +10°C° 0.3 mm 6 mps 751 mmHg 91%
    Show more